Location: Fairview
(40.8165°N, 122.7667°W)
Time: 20:26:54
(UTC+00:00)

USA 234 - Visible Passes

Search period start: 19 September 2024 00:00
Search period end: 29 September 2024 00:00
Orbit: 1100 x 1107 km, 123.0° (Epoch: 08 July)

Date Brightness Start Highest point End Pass type
(mag) Time Alt. Az. Time Alt. Az. Time Alt. Az.
19 Sep 4.3 03:00:31 10° SSE 03:06:42 44° SW 03:12:56 10° WNW visible
20 Sep 5.3 04:02:37 10° S 04:07:20 21° WSW 04:12:04 10° WNW visible
21 Sep 4.2 03:18:00 10° SSE 03:24:09 44° SW 03:30:23 10° WNW visible
22 Sep 3.4 02:34:40 10° SE 02:41:14 84° SW 02:47:50 10° NW visible
22 Sep 5.2 04:20:06 10° S 04:24:48 21° WSW 04:29:31 10° WNW visible
23 Sep 4.2 03:35:28 10° SSE 03:41:37 44° SW 03:47:51 10° WNW visible
24 Sep 3.4 02:52:09 10° SE 02:58:42 84° SW 03:05:18 10° NW visible
24 Sep 5.2 04:37:56 11° SSW 04:42:16 21° WSW 04:46:58 10° WNW visible
25 Sep 4.1 03:53:53 14° SSE 03:59:05 43° SW 04:05:18 10° WNW visible
26 Sep 3.3 03:09:46 11° SE 03:16:09 83° SW 03:22:45 10° NW visible
26 Sep 5.1 04:57:09 16° SSW 04:59:44 20° WSW 05:04:25 10° WNW visible
27 Sep 3.5 02:27:06 10° ESE 02:33:29 57° NE 02:39:52 10° NW visible
27 Sep 4.1 04:13:01 24° S 04:16:33 43° SW 04:22:45 10° WNW visible
28 Sep 3.3 03:28:52 20° SE 03:33:38 83° SW 03:40:13 10° NW visible
28 Sep 5.0 05:16:14 20° SW 05:17:12 20° WSW 05:21:51 10° WNW visible
